{"data":{"norad_id":55686,"epoch":"2026-05-24T18:04:13.742112Z","epoch_age_seconds":92816,"freshness":"FRESH","line1":"1 55686U 23023A   26144.75293683 -.00000357  00000+0  00000+0 0  9994","line2":"2 55686   0.0725  75.2166 0004176   1.4002 201.9001  1.00270844 11997","mean_motion":1.00270844,"eccentricity":0.0004176,"inclination_deg":0.0725,"raan_deg":75.2166,"arg_perigee_deg":1.4002,"mean_anomaly_deg":201.9001,"bstar":0,"rev_number":1199,"period_min":1436.1103811991,"perigee_km":35769.250657484,"apogee_km":35804.466861942,"semimajor_km":42164.995759713,"source":"CELESTRAK","updated_at":"2026-05-25T13:38:14.138787Z"}}